Regional Weather Roundup
Issued by NWS

Home | Current Version | Previous Version | Text Only | Print | Product List | Glossary On
Versions: 1 2 3 4 5 6 7 8 9 10 11 12 13 14 15 16 17 18 19 20 21 22 23 24 25 26 27 28 29 30 31 32 33 34 35 36 37 38 39 40 41 42 43 44 45 46 47 48 49 50
000
ASUS44 KFWD 290415
RWRTX
NORTH TEXAS HOURLY WEATHER ROUNDUP
NATIONAL WEATHER SERVICE FORT WORTH TX
1100 PM CDT TUE JUL 28 2015

NOTE: "FAIR" INDICATES FEW OR NO CLOUDS BELOW 12,000 FEET WITH NO
SIGNIFICANT WEATHER AND/OR OBSTRUCTIONS TO VISIBILITY.

TXZ118-119-290500-
DALLAS/FORT WORTH METROPLEX

CITY           SKY/WX    TMP DP  RH WIND       PRES   REMARKS
DFW AIRPORT    CLEAR     89  62  40 SE9       29.93R
DALLAS LOVE    CLEAR     92  62  36 S13       29.94R HX  92
FTW MEACHAM    CLEAR     90  64  42 SE12      29.93R HX  91
DAL-EXECUTIVE  CLEAR     86  63  45 S6        29.95R
FTW-ALLIANCE   CLEAR     87  64  46 S8        29.94R
FTW-NAS-JRB    CLEAR     90  65  43 SE13      29.94R HX  92
FTW-SPINKS     CLEAR     83  65  54 SE7       29.96R
ARLINGTON      CLEAR     87  63  44 SE6       29.95R
GRAND PRAIRIE  CLEAR     87  66  49 SE6       29.95R
ADDISON        CLEAR     90  63  40 S10G17    29.96R HX  91
MESQUITE       CLEAR     83  64  53 SE5       29.95R
LANCASTER      CLEAR     82  62  50 CALM      29.95R
$$

TXZ091>094-102>105-117-120-121-131>134-290500-
NORTH CENTRAL TEXAS

CITY           SKY/WX    TMP DP  RH WIND       PRES   REMARKS
SHRMAN/DENISON CLEAR     86  67  51 SE9       29.96R
GAINESVILLE    CLEAR     79  65  62 SE3       29.96R
BOWIE          CLEAR     80  65  60 CALM      29.96R
DECATUR        CLEAR     86  61  42 SE9       29.96R
DENTON         CLEAR     84  65  52 SE6       29.94R
MCKINNEY       CLEAR     83  66  56 S6        29.95R
GREENVILLE     CLEAR     81  63  54 SE5       29.96R
ROCKWALL       CLEAR     85  65  51 S6        29.94R
TERRELL        CLEAR     82  66  58 CALM      29.95R
WAXAHACHIE     CLEAR     84  66  53 SE5       29.96R
CLEBURNE       CLEAR     86  66  51 SE7       29.97R
GRANBURY       CLEAR     89  65  46 SE7       29.95R HX  90
$$

TXZ083>090-098>101-113>116-127>130-139>142-154-155-290500-
WESTERN NORTH TEXAS

CITY           SKY/WX    TMP DP  RH WIND       PRES   REMARKS
WICHITA FALLS  CLEAR     81  65  58 S8        29.94R
WF-KICKAPOO    CLEAR     85  65  51 SE6       29.95R
VERNON         CLEAR     86  58  37 SE6       29.96R
ABILENE        CLEAR     85  64  49 SE9       29.97R
BRECKENRIDGE   CLEAR     86  64  46 SE9       29.94R
GRAHAM         CLEAR     85  67  54 SE7       29.93R
MINERAL WELLS  CLEAR     83  66  56 SE6       29.93R
STEPHENVILLE   CLEAR     84  64  50 SE5       29.99R
COMANCHE       CLEAR     84  66  53 S7        29.97R
BROWNWOOD      MOCLDY    82  63  51 E5        29.97R
COLEMAN        CLEAR     82  64  54 SE3       29.98R
BRADY          CLEAR     88  61  40 SE8       29.98R
$$

TXZ143>147-156>162-174-175-290500-
CENTRAL TEXAS

CITY           SKY/WX    TMP DP  RH WIND       PRES   REMARKS
WACO           CLEAR     88  66  48 SE10      29.94R HX  90
WACO-MCGREGOR  CLEAR     88  64  45 S12       29.96R
HILLSBORO      CLEAR     86  63  44 SE8       29.95R
CORSICANA      CLEAR     85  66  53 S3        29.96R
MEXIA          CLEAR     82  69  63 SE13      29.94R
HEARNE         CLEAR     85  71  62 SE9       29.96R HX  90
CAMERON        CLEAR     86  71  60 S10       29.95R HX  91
TEMPLE         CLEAR     86  66  51 S13       29.95R
KILLEEN        NOT AVBL
KILLEEN-SKYLRK CLEAR     88  64  45 S14       29.96R
GATESVILLE     CLEAR     86  66  51 S8        29.98R
HAMILTON       CLEAR     84  63  49 MISG      29.98R
LAMPASAS       CLEAR     88  69  53 SE12G17   29.97R HAZE    HX  91
$$

TXZ095>097-106>112-122>126-135>138-148>153-164>167-290500-
EAST TEXAS

CITY           SKY/WX    TMP DP  RH WIND       PRES   REMARKS
PARIS          CLEAR     82  66  57 S6        29.96R
SULPHUR SPRNGS CLEAR     87  67  50 S6        29.97R
MOUNT PLEASANT CLEAR     82  70  66 CALM      29.96R
GILMER         CLEAR     82  71  68 CALM      29.96R
MINEOLA        CLEAR     79  73  83 CALM      29.96R
TYLER          CLEAR     84  68  58 SE6       29.96R
LONGVIEW       CLEAR     83  71  67 SE5       29.95R
MARSHALL       CLEAR     82  73  76 CALM      29.98R
ATHENS         CLEAR     77  66  69 CALM      29.95R
PALESTINE      CLEAR     84  68  58 CALM      29.96R
JACKSONVILLE   CLEAR     85  66  52 SE5       29.99R
HENDERSON      CLEAR     79  73  81 CALM      29.97R
CENTER         FAIR      81  75  82 SE5       29.96R
NACOGDOCHES    CLEAR     84  70  61 S6        29.96R
LUFKIN         CLEAR     82  72  71 S6        29.97R
$$

SUPPLEMENTAL OBSERVATIONS (CENTRAL)

CITY           SKY/WX    TMP DP  RH WIND       PRES   REMARKS
LAKE TEXOMA      N/A     86  64  48 SE6         N/A
CADDO GRASSLND   N/A     79  68  69 S3          N/A
PAT MAYSE LAKE   N/A     84  66  54 SE6         N/A
GREENVILLE       N/A     82  64  54 S2          N/A
CEDAR HILL       N/A     84  63  48 SE5         N/A
ATHENS           N/A     82  66  57 E2          N/A
LAKE LIMESTONE   N/A     84  64  51 S7          N/A
MCGREGOR         N/A     86  66  51 S9          N/A
TEMPLE           N/A     86  70  58 S14         N/A  HX  90
$$

SUPPLEMENTAL OBSERVATIONS (WEST)

CITY           SKY/WX    TMP DP  RH WIND       PRES   REMARKS
MILLERS CREEK    N/A     84  66  54 SE7         N/A
POSSUM KINGDOM   N/A     86  63  45 SE8         N/A
LBJ GRASSLAND    N/A     88  64  45 SE7         N/A
GRANBURY         N/A     88  64  45 SE8         N/A
COMANCHE         N/A     84  63  48 SE8         N/A
HAMBY            N/A     84  63  48 SE7         N/A
IVIE RESERVOIR   N/A     88  63  42 SE8         N/A
COLORADO BEND    N/A     86  63  45 S10         N/A
$$

SUPPLEMENTAL OBSERVATIONS (EAST)

CITY           SKY/WX    TMP DP  RH WIND       PRES   REMARKS
CLARKSVILLE      N/A     82  70  65 SE1         N/A
TEXARKANA        N/A     77  73  88 CALM        N/A
LINDEN           N/A     81  72  74 CALM        N/A
GILMER           N/A     81  72  74 CALM        N/A
HENDERSON        N/A     81  70  69 CALM        N/A
LUFKIN           N/A     82  70  65 MISG        N/A
N SABINE NF      N/A     81  73  78 MISG        N/A
S SABINE NF      N/A     79  72  78 CALM        N/A
$$

SUPPLEMENTAL OBSERVATIONS ARE A COLLECTION OF AUTOMATED INSTRUMENTS
THAT ARE MAINTAINED BY A VARIETY OF FEDERAL AND STATE AGENCIES.
CERTAIN ELEMENTS...SUCH AS HUMIDITY VALUES AND SUSTAINED WIND
SPEEDS...MAY BE APPROXIMATED.




USA.gov is the U.S. government's official web portal to all federal, state and local government web resources and services.